Flag Weather past 2 weeks in Phuket, Thailand

Now
88 °F

Partly sunny.


Feels Like: 96 °F
Forecast: 78 / 87 °F
Wind: 9 mph from East

Location: Phuket Airport

Current Time: Nov 23, 2014 at 1:10:10 PM

Latest Report: Nov 23, 2014 at 12:30 PM


Visibility: N/A

Pressure: 29.83 "Hg

Humidity: 62%

Dew point: 73 °F

Location of PhuketLocation

Historic Weather in Phuket — Graph

°F

Phuket temperature yesterday

Maximum temperature yesterday: 90 °F (at 12:30 PM)
Minimum temperature yesterday: 73 °F (at 8:00 PM)
Average temperature yesterday: 81 °F

Past Weeks' High & Low Weather Summary

 TemperatureHumidityPressure
High90 °F (Nov 11, 1:30 PM)94% (Nov 9, 2:00 AM)32.52 "Hg (Nov 9, 2:00 AM)
Low73 °F (Nov 13, 5:00 PM)52% (Nov 13, 1:00 PM)29.74 "Hg (Nov 9, 3:00 PM)
Average81 °F80%29.85 "Hg
* Reported Nov 8 11:30 AM — Nov 23 11:30 AM, Phuket, Weather by CustomWeather, © 2014

Note: Actual official high and low records may vary slightly from our data, if they occured in-between our weather recording intervals... More about our weather records

Advertising

Phuket weather history for previous 24 hours

 ConditionsComfort  
Time TempWeatherWind HumidityBarometerVisibility
11:30 AM
Nov 23
86 °FPartly sunny.6 mph70%29.86 "HgN/A
11:00 AM86 °FPartly sunny.9 mph70%29.86 "HgN/A
10:30 AM86 °FPartly sunny.7 mph66%29.86 "HgN/A
9:30 AM84 °FPartly sunny.7 mph74%29.86 "HgN/A
9:00 AM82 °FPartly sunny.8 mph79%29.86 "HgN/A
8:30 AM82 °FPartly sunny.6 mph79%29.86 "HgN/A
8:00 AM81 °FBroken clouds.6 mph84%29.86 "HgN/A
7:30 AM79 °FBroken clouds.3 mph89%29.86 "Hg6 mi
7:00 AM77 °FBroken clouds.1 mph94%29.83 "Hg5 mi
6:30 AM77 °FBroken clouds.2 mph94%29.83 "Hg4 mi
6:00 AM79 °FPartly cloudy.1 mph89%29.80 "Hg4 mi
5:30 AM79 °FPartly cloudy.3 mph89%29.80 "Hg4 mi
5:00 AM79 °FPartly cloudy.2 mph89%29.80 "Hg4 mi
4:30 AM77 °FPartly cloudy.2 mph94%29.80 "Hg4 mi
4:00 AM77 °FPartly cloudy.1 mph89%29.80 "Hg4 mi
3:30 AM77 °FPartly cloudy.No wind89%29.80 "Hg4 mi
3:00 AM77 °FPartly cloudy.1 mph89%29.80 "Hg4 mi
2:30 AM77 °FPassing clouds.1 mph94%29.83 "Hg4 mi
2:00 AM77 °FPassing clouds.1 mph94%29.83 "Hg4 mi
1:30 AM77 °FPassing clouds.2 mph94%29.86 "Hg4 mi
1:00 AM77 °FPassing clouds.1 mph94%29.86 "Hg4 mi
12:30 AM77 °FPassing clouds.1 mph94%29.86 "Hg4 mi
12:00 AM77 °FPassing clouds.1 mph94%29.86 "Hg4 mi
11:30 PM
Nov 22
77 °FPassing clouds.2 mph89%29.89 "Hg4 mi
11:00 PM77 °FPassing clouds.3 mph89%29.89 "Hg4 mi
10:30 PM77 °FPassing clouds.2 mph89%29.86 "Hg4 mi
10:00 PM77 °FPassing clouds.6 mph89%29.86 "Hg4 mi
9:30 PM75 °FPassing clouds.2 mph94%29.86 "Hg4 mi
9:00 PM75 °FPassing clouds.2 mph89%29.83 "Hg4 mi
8:30 PM75 °FRain. Partly cloudy.6 mph89%29.83 "Hg3 mi
8:00 PM73 °FThunderstorms. Partly cloudy.3 mph94%29.86 "Hg3 mi
7:30 PM75 °FThunderstorms. Partly cloudy.5 mph94%29.86 "Hg2 mi
7:00 PM77 °FThunderstorms. Partly cloudy.5 mph89%29.83 "Hg2 mi
6:30 PM77 °FThunderstorms. Partly cloudy.6 mph94%29.83 "Hg3 mi
6:00 PM79 °FThunderstorms. Broken clouds.5 mph89%29.80 "Hg2 mi
5:30 PM79 °FThunderstorms. Broken clouds.2 mph89%29.77 "Hg2 mi
5:00 PM79 °FThunderstorms. Broken clouds.3 mph89%29.77 "Hg2 mi
4:30 PM86 °FRain. Broken clouds.15 mph66%29.77 "Hg3 mi
4:00 PM86 °FBroken clouds.13 mph70%29.77 "Hg5 mi
3:30 PM86 °FBroken clouds.12 mph66%29.77 "Hg5 mi
3:00 PM86 °FBroken clouds.9 mph66%29.77 "Hg5 mi
2:30 PM88 °FBroken clouds.8 mph66%29.77 "Hg5 mi
2:00 PM88 °FBroken clouds.8 mph62%29.80 "Hg5 mi
1:30 PM88 °FBroken clouds.3 mph62%29.83 "Hg5 mi
1:00 PM88 °FBroken clouds.7 mph62%29.80 "Hg5 mi
Weather by CustomWeather, © 2014

See weather overviewHow to use our weather pages